Cloud_Cover
4 1 24 31 0 4 4 5 5 0 0 62 98 100 86 100 100 90 12 86 8 66 7 5 58 5 5 9 82 87 60 86 12 98 100 70 92 70 91 12 13 100 44
86 90 4 0 3 3 15 4 4 5 0 0 1 18 74 100 98 92 100 51 54 3 94 97 89 12 2 18 66 19 5 14 8 5 6 41 54 61 5 6 13 72 100
15 100 98 7 5 0 10 60 72 4 0 0 0 0 4 4 11 83 63 61 59 68 90 17 37 10 32 22 43 39 82 57 68 35 82 74 27 6 5 5 16 57 44
50 99 100 100 64 5 0 3 50 5 2 0 5 4 5 2 4 5 10 40 7 63 84 13 78 91 92 100 100 100 100 100 100 100 74 96 10 84 93 9 21 92 13
3 2 43 97 97 94 14 65 87 6 5 7 5 5 5 3 0 4 37 100 65 5 100 100 98 8 98 99 93 95 96 95 100 100 98 89 23 5 88 100 100 89 27
5 6 2 2 1 5 1 1 38 14 5 5 5 5 5 5 5 5 5 24 89 100 89 84 98 91 100 98 46 42 38 64 48 79 47 95 100 42 5 5 96 100 73
5 62 1 0 0 0 0 0 2 77 9 22 5 11 77 85 5 5 39 18 88 100 100 81 100 100 100 100 100 100 71 88 13 5 5 5 2 1 2 5 8 43 73
94 100 2 0 0 0 0 0 8 5 5 9 5 5 5 5 5 4 5 5 5 12 86 100 100 100 100 100 100 100 100 6 6 5 5 5 23 29 5 4 4 2 0
60 91 1 0 0 0 0 0 0 1 4 4 5 5 5 5 5 5 5 5 5 5 42 27 96 33 38 56 69 100 100 42 39 5 53 52 38 41 7 40 6 3 0
17 5 4 0 0 0 0 0 0 0 0 0 0 5 3 2 5 5 3 2 10 5 17 5 5 5 4 7 5 7 44 5 5 5 5 5 7 5 5 1 5 5 5
29 40 26 54 0 0 0 0 0 0 0 0 0 0 2 2 0 0 0 0 0 0 0 0 0 0 0 2 5 5 2 1 1 5 5 4 4 0 0 2 1 5 96
0 1 0 0 0 0 0 0 0 0 0 0 3 0 12 0 0 28 5 3 9 2 0 0 0 0 0 2 3 5 5 5 0 0 0 0 0 1 2 1 10 3 0
0 0 0 0 0 0 0 0 1 0 1 5 18 5 7 3 4 3 0 1 5 1 0 5 4 98 100 96 3 0 3 0 0 0 0 5 4 5 5 5 51 8 5
0 0 0 0 0 5 11 8 4 3 5 5 3 27 80 84 97 21 9 8 16 7 3 76 90 100 100 100 100 100 57 3 2 1 2 4 5 5 5 5 9 59 68
0 1 1 4 3 5 4 16 15 6 60 29 98 100 100 100 100 100 64 52 73 33 23 35 100 100 100 99 100 29 9 5 5 2 0 0 1 0 0 0 9 33 5
16 32 5 100 100 91 10 6 9 100 100 100 100 100 100 100 100 100 100 100 100 82 78 5 5 17 41 5 63 100 85 100 97 21 2 0 0 0 0 0 0 0 0
5 10 100 100 96 9 53 67 100 100 100 100 100 100 100 100 100 100 100 100 100 100 100 91 49 77 28 76 84 20 24 76 100 100 89 97 100 100 35 71 5 0 0
4 100 93 42 57 21 32 76 100 100 100 100 100 100 100 100 100 100 100 100 100 100 100 99 100 65 100 89 46 34 39 5 4 82 100 77 100 100 100 100 27 79 19
27 5 2 5 5 5 91 56 81 100 99 100 100 100 100 100 100 100 100 100 100 100 100 100 100 100 100 100 93 64 8 77 52 43 84 100 97 100 100 26 24 5 5
61 54 80 31 18 30 100 25 56 100 100 100 100 100 100 100 100 100 100 100 100 100 100 100 100 100 100 100 99 32 75 100 100 97 59 100 100 100 26 98 60 61 4
44 6 9 58 51 87 100 38 74 100 100 100 100 100 74 100 100 99 100 100 100 100 100 100 100 100 100 100 100 100 100 100 100 100 100 100 100 100 73 100 88 5 0
0 14 66 57 19 94 100 100 100 100 97 73 44 77 100 100 100 100 100 100 100 100 100 100 100 100 100 100 100 100 100 100 100 98 94 69 92 93 97 73 98 82 3
40 100 100 26 24 60 99 100 100 100 45 31 40 100 100 100 100 100 100 100 100 100 100 100 100 100 100 100 100 100 100 100 100 77 14 24 72 81 90 99 94 93 84
18 49 83 31 54 12 38 94 99 100 100 98 58 100 100 100 100 100 100 100 100 100 100 100 100 100 100 100 100 100 100 100 100 99 99 24 54 94 98 94 100 100 100
14 3 34 64 37 3 2 1 50 100 100 100 100 100 100 100 100 100 100 100 100 100 100 100 100 100 100 100 73 100 100 100 100 100 84 100 100 100 96 100 100 100 100
5 54 100 32 43 22 75 11 85 100 100 100 100 100 100 100 100 100 100 100 100 100 100 100 100 100 100 100 100 100 100 100 100 100 100 100 100 100 100 100 100 100 100